Location: Seattle
(47.6064°N, 122.3308°W)
Time: 00:48:36
(UTC-08:00)

Envisat - Pass Details

Date: 31 October 2020
Orbit: 764 x 766 km, 98.1° (Epoch: 03 December)

Event Time Altitude Azimuth Distance (km) Brightness Sun altitude
Rises 05:51:32 0° 29° (NNE) 3,243 6.7 -20.9°
Reaches altitude 10° 05:54:45 10° 50° (NE) 2,310 6.2 -20.3°
Maximum altitude 05:57:53 16° 88° (E) 1,901 6.1 -19.8°
Drops below altitude 10° 06:01:02 10° 127° (SE) 2,299 6.2 -19.3°
Sets 06:04:12 0° 148° (SSE) 3,218 6.7 -18.7°
